We konden geen weer-waarchuwingen ophalen. Ga rechtstreeks naar de Meteoalarm site : www.meteoalarm.eu en controleer daar .



Onweer radar Meer informatie blitzortung!


Regen radar Meer informatie rain snow radar


Bezoek onze andere website:

Template documentation
and downloads

And another site



15 daagse weersverwachting Narvik (NO)

  • Overzicht
  • Per uur
  • 15 dagen
  • Extra
  • Vergelijk
  • Kaarten
  • Dagkaart
  • Meer »
  • Info
  • Statistieken
  • Directe link
    Temp 6h Neerslag Wind  
 04:20     21:32    Daglengte: 17:12 Vandaag
14:00
10°
17.8 mm
3
20:00
25.0 mm
3
 04:24     21:27    Daglengte: 17:03 Morgen
02:00
4.0 mm
3
08:00
 
3
14:00
12°
 
1
20:00
14°
 
2
 04:28     21:22    Daglengte: 16:54 Vrijdag 19 Aug
02:00
13°
 
4
08:00
15°
 
4
14:00
18°
29.6 mm
3
20:00
18°
25.1 mm
2
 04:32     21:18    Daglengte: 16:46 Zaterdag 20 Aug
02:00
16°
77.9 mm
2
08:00
17°
43.6 mm
1
Locatie info
Region: Nordland
Latitude: 68.4395°N
Longitude: 17.4301°E
100 masl
Postcode: 8514
Temp/Neerslag /Baro Onweer/Dauwpunt
    Temp Baro 1h Neerslag Dauwpunt Wind UV Bewolking  
 04:20     21:32    Daglengte: 17:12 Vandaag
14:00
10°
1010.6 hPa 17.8 mm
49%
9.2°
3
Windvlaag: 2.2 m/s
83%
15:00
10°
1011.0 hPa 4.5 mm
82%
9.2°
4
Windvlaag: 0 m/s
86%
16:00
10°
Voelt als: 7.3°
1011.6 hPa 4.2 mm
82%
7.9°
4
Windvlaag: 0.3 m/s
86%
17:00
Voelt als: 6.9°
1012.2 hPa 4.0 mm
82%
7.4°
4
Windvlaag: -0.3 m/s
86%
18:00
Voelt als: 6.8°
1012.7 hPa 4.0 mm
82%
7.1°
3
Windvlaag: -0.2 m/s
86%
19:00
Voelt als: 6.7°
1013.1 hPa 4.1 mm
82%
6.8°
3
Windvlaag: -0.1 m/s
86%
20:00
Voelt als: 7.0°
1013.5 hPa 4.2 mm
82%
6.8°
3
Windvlaag: 0.2 m/s
85%
21:00
Voelt als: 7.0°
1013.9 hPa
82%
7.0°
3
Windvlaag: 0.9 m/s
84%
22:00
Voelt als: 7.3°
1014.2 hPa 4.0 mm
82%
7.3°
2
Windvlaag: 1.5 m/s
68%
23:00
Voelt als: 7.2°
1014.7 hPa
82%
7.1°
2
Windvlaag: 2 m/s
69%
 04:24     21:27    Daglengte: 17:03 Morgen
00:00
Voelt als: 7.2°
1015.2 hPa
82%
7.0°
3
Windvlaag: 1.9 m/s
76%
01:00
Voelt als: 7.2°
1015.8 hPa
80%
7.2°
3
Windvlaag: 2.2 m/s
62%
02:00
Voelt als: 6.9°
1016.5 hPa
33%
7.0°
3
Windvlaag: 1.8 m/s
62%
03:00
Voelt als: 6.9°
1017.0 hPa
30%
6.6°
3
Windvlaag: 1.6 m/s
24%
04:00
Voelt als: 7.0°
1017.5 hPa
38%
6.5°
3
Windvlaag: 1.9 m/s
50%
05:00
Voelt als: 7.2°
1018.0 hPa
42%
6.9°
2
Windvlaag: 2.2 m/s
31%
06:00
Voelt als: 7.2°
1018.4 hPa
41%
6.9°
3
Windvlaag: 2.2 m/s
27%
07:00
Voelt als: 7.4°
1019.1 hPa
76%
6.8°
3
Windvlaag: 2 m/s
50%
08:00
Voelt als: 7.6°
1019.7 hPa
15%
6.4°
3
Windvlaag: 1.2 m/s
38%
09:00
10°
Voelt als: 8.1°
1020.2 hPa
15%
6.1°
3
Windvlaag: 0.5 m/s
18%
10:00
10°
Voelt als: 8.6°
1020.8 hPa
15%
5.9°
3
Windvlaag: -0.3 m/s
28%
11:00
10°
1021.2 hPa
14%
5.6°
2
Windvlaag: 1 m/s
34%
12:00
11°
1021.1 hPa
14%
5.0°
1
Windvlaag: -0.7 m/s
47%
13:00
12°
1021.1 hPa
14%
4.5°
1
Windvlaag: -1.4 m/s
51%
14:00
12°
1020.6 hPa
14%
4.5°
1
Windvlaag: -2.3 m/s
33%
15:00
13°
1019.9 hPa
14%
4.5°
1
Windvlaag: -2 m/s
22%
16:00
13°
1019.2 hPa
14%
4.5°
1
Windvlaag: -0.8 m/s
21%
17:00
14°
1018.6 hPa
14%
4.7°
1
Windvlaag: 2.1 m/s
8%
18:00
15°
1018.0 hPa
14%
5.0°
1
Windvlaag: 2 m/s
21%
19:00
15°
1017.4 hPa
14%
5.3°
2
Windvlaag: 3 m/s
6%
20:00
14°
1017.2 hPa
14%
4.7°
2
Windvlaag: 4 m/s
7%
21:00
13°
1017.2 hPa
14%
4.4°
3
Windvlaag: 5.5 m/s
14%
22:00
13°
1017.2 hPa
14%
3.9°
3
Windvlaag: 7.2 m/s
19%
23:00
13°
1016.9 hPa
14%
3.8°
4
Windvlaag: 8.1 m/s
41%
 04:28     21:22    Daglengte: 16:54 Vrijdag 19 Aug
00:00
13°
1016.7 hPa
14%
4.2°
4
Windvlaag: 8.7 m/s
53%
01:00
13°
1016.4 hPa
14%
4.6°
4
Windvlaag: 7.8 m/s
49%
02:00
13°
1016.1 hPa
16%
4.4°
4
Windvlaag: 6.4 m/s
47%
03:00
13°
1015.7 hPa
25%
5.0°
4
Windvlaag: 7.6 m/s
57%
04:00
13°
1015.3 hPa
22%
5.4°
4
Windvlaag: 7.6 m/s
81%
05:00
14°
1014.9 hPa
14%
5.7°
4
Windvlaag: 8.6 m/s
77%
06:00
14°
1014.7 hPa
14%
6.1°
4
Windvlaag: 10 m/s
72%
07:00
14°
1014.4 hPa
14%
7.3°
4
Windvlaag: 10 m/s
52%
08:00
15°
1014.2 hPa
14%
8.4°
4
Windvlaag: 9.1 m/s
57%
09:00
16°
1013.8 hPa
14%
9.5°
3
Windvlaag: 8.3 m/s
78%
10:00
16°
1013.3 hPa
18%
11.4°
3
Windvlaag: 6.9 m/s
63%
11:00
17°
1012.7 hPa 7.2 mm
85%
10.5°
3
Windvlaag: 8.2 m/s
98%
12:00
18°
1012.1 hPa 7.2 mm
95%
9.7°
3
Windvlaag: 8.8 m/s
86%
13:00
18°
1011.6 hPa 7.4 mm
100%
10.3°
3
Windvlaag: 10 m/s
98%
14:00
18°
1011.7 hPa 7.8 mm
100%
14.5°
3
Windvlaag: 10.5 m/s
92%
15:00
18°
1011.6 hPa 8.1 mm
100%
15.4°
4
Windvlaag: 12.5 m/s
95%
16:00
19°
1011.2 hPa
100%
14.7°
4
Windvlaag: 13 m/s
94%
17:00
19°
1011.0 hPa 8.5 mm
100%
13.3°
4
Windvlaag: 12.3 m/s
93%
18:00
18°
1010.9 hPa 8.5 mm
99%
15.5°
3
Windvlaag: 11.6 m/s
88%
19:00
18°
1010.6 hPa
21%
14.8°
2
Windvlaag: 10.5 m/s
80%
20:00
18°
1010.4 hPa
21%
16.0°
2
Windvlaag: 9.8 m/s
89%
21:00
18°
1010.7 hPa 8.6 mm
21%
15.4°
2
Windvlaag: 9.9 m/s
98%
22:00
17°
1011.1 hPa 13.1 mm
21%
16.6°
1
Windvlaag: 3.2 m/s
95%
23:00
16°
1010.9 hPa 14.1 mm
21%
15.8°
1
Windvlaag: 0.8 m/s
73%
 04:32     21:18    Daglengte: 16:46 Zaterdag 20 Aug
00:00
16°
1011.1 hPa 13.9 mm
21%
15.0°
1
Windvlaag: 1.8 m/s
78%
01:00
16°
1010.8 hPa 14.1 mm
21%
13.8°
2
Windvlaag: 2.7 m/s
82%
02:00
16°
1010.5 hPa 14.1 mm
21%
13.3°
2
Windvlaag: 3.7 m/s
88%
03:00
16°
1010.4 hPa 14.4 mm
21%
12.3°
2
Windvlaag: 4.3 m/s
93%
04:00
16°
1010.3 hPa 14.8 mm
21%
11.8°
2
Windvlaag: 4.1 m/s
90%
05:00
16°
1010.1 hPa 14.4 mm
21%
13.4°
2
Windvlaag: 3.8 m/s
92%
06:00
15°
1011.4 hPa
21%
13.8°
2
Windvlaag: 12.9 m/s
88%
07:00
16°
1011.2 hPa
21%
15.0°
2
Windvlaag: 9.5 m/s
57%
08:00
17°
1011.1 hPa
21%
16.3°
1
Windvlaag: 8.2 m/s
66%
09:00
18°
1011.1 hPa
21%
17.3°
1
Windvlaag: 2.9 m/s
83%
10:00
18°
1010.7 hPa
21%
17.9°
2
Windvlaag: 5.5 m/s
90%
11:00
19°
1010.4 hPa
30%
17.7°
2
Windvlaag: 7.5 m/s
96%
12:00
19°
1009.8 hPa
100%
17.0°
2
Windvlaag: 7.2 m/s
99%
13:00
19°
1009.3 hPa 17.4 mm
100%
15.8°
2
Windvlaag: 7.7 m/s
97%
Temp/Neerslag /Baro Onweer/Dauwpunt
    Temp Baro Neerslag Dauwpunt Wind Bewolking  
 04:20     21:32    Daglengte: 17:12 Vandaag
14:00
10°
1010.6 hPa 17.8 mm 9.2°
3
83%
17:00
Voelt als: 6.9°
1012.2 hPa 12.7 mm 7.4°
4
86%
20:00
Voelt als: 7.0°
1013.5 hPa 12.3 mm 6.8°
3
85%
23:00
Voelt als: 7.2°
1014.7 hPa 4.0 mm 7.1°
2
69%
 04:24     21:27    Daglengte: 17:03 Morgen
02:00
Voelt als: 6.9°
1016.5 hPa   7.0°
3
62%
05:00
Voelt als: 7.2°
1018.0 hPa   6.9°
2
31%
08:00
Voelt als: 7.6°
1019.7 hPa   6.4°
3
38%
11:00
10°
1021.2 hPa   5.6°
2
34%
14:00
12°
1020.6 hPa   4.5°
1
33%
17:00
14°
1018.6 hPa   4.7°
1
8%
20:00
14°
1017.2 hPa   4.7°
2
7%
23:00
13°
1016.9 hPa   3.8°
4
41%
 04:28     21:22    Daglengte: 16:54 Vrijdag 19 Aug
02:00
13°
1016.1 hPa   4.4°
4
47%
05:00
14°
1014.9 hPa   5.7°
4
77%
08:00
15°
1014.2 hPa   8.4°
4
57%
11:00
17°
1012.7 hPa 7.2 mm 10.5°
3
98%
14:00
18°
1011.7 hPa 22.4 mm 14.5°
3
92%
17:00
19°
1011.0 hPa 16.6 mm 13.3°
4
93%
20:00
18°
1010.4 hPa 8.5 mm 16.0°
2
89%
23:00
16°
1010.9 hPa 35.8 mm 15.8°
1
73%
 04:32     21:18    Daglengte: 16:46 Zaterdag 20 Aug
02:00
16°
1010.5 hPa 42.1 mm 13.3°
2
88%
05:00
16°
1010.1 hPa 43.6 mm 13.4°
2
92%
08:00
17°
1011.1 hPa   16.3°
1
66%
11:00
19°
1010.4 hPa   17.7°
2
96%
14:00
18°
1009.0 hPa 52.5 mm 15.3°
2
97%
17:00
16°
1011.2 hPa 53.6 mm 15.2°
1
1%
20:00
15°
1010.9 hPa 53.7 mm 14.3°
0
1%
23:00
15°
1010.1 hPa 53.9 mm 14.0°
0
1%
 04:36     21:13    Daglengte: 16:37 Zondag 21 Aug
02:00
15°
1008.0 hPa 55.2 mm 14.2°
2
1%
05:00
15°
1005.8 hPa 59.7 mm 14.5°
1
1%
08:00
15°
1004.3 hPa 66.4 mm 14.5°
1
1%
11:00
15°
1003.2 hPa 69.8 mm 14.6°
0
1%
14:00
16°
1003.1 hPa 72.3 mm 14.8°
3
1%
17:00
18°
1002.3 hPa 73.3 mm 14.5°
3
1%
20:00
16°
1004.6 hPa 74.3 mm 13.8°
4
1%
23:00
12°
1007.8 hPa 74.7 mm 12.2°
3
1%
 04:40     21:08    Daglengte: 16:28 Maandag 22 Aug
02:00
11°
1008.2 hPa 74.8 mm 10.1°
1
1%
05:00
11°
1007.9 hPa 74.9 mm 9.8°
1
1%
08:00
13°
1007.5 hPa 74.9 mm 9.8°
1
1%
11:00
16°
1005.9 hPa 75.0 mm 11.1°
0
1%
14:00
18°
1005.0 hPa 75.3 mm 10.8°
1
1%
17:00
17°
1004.3 hPa 76.5 mm 11.8°
1
1%
20:00
14°
1005.3 hPa 77.7 mm 12.1°
3
1%
23:00
12°
1006.7 hPa 78.2 mm 11.8°
2
1%
 04:44     21:04    Daglengte: 16:20 Dinsdag 23 Aug
02:00
11°
1008.5 hPa 79.5 mm 10.2°
3
1%
05:00
11°
1009.8 hPa 84.4 mm 9.6°
2
1%
08:00
10°
1012.0 hPa 87.9 mm 9.1°
3
1%
11:00
11°
1013.7 hPa 89.2 mm 8.7°
4
1%
14:00
10°
1017.3 hPa 90.6 mm 8.3°
4
1%
17:00
10°
Voelt als: 8.1°
1020.2 hPa 93.2 mm 8.2°
4
1%
20:00
10°
Voelt als: 8.0°
1023.1 hPa 94.0 mm 7.1°
4
1%
23:00
10°
1024.8 hPa 94.1 mm 7.8°
2
1%
 04:48     20:59    Daglengte: 16:11 Woensdag 24 Aug
02:00
10°
Voelt als: 9.3°
1025.8 hPa 94.4 mm 7.1°
1
1%
05:00
Voelt als: 7.0°
1025.0 hPa 94.4 mm 5.4°
3
1%
08:00
11°
1024.1 hPa 94.4 mm 5.9°
3
1%
11:00
15°
1022.8 hPa   5.5°
3
1%
14:00
17°
1022.0 hPa 188.8 mm 5.8°
1
1%
20:00
15°
1022.6 hPa 188.8 mm 8.7°
1
1%
 04:52     20:55    Daglengte: 16:03 Donderdag 25 Aug
02:00
15°
1022.6 hPa 188.8 mm 7.7°
3
1%
08:00
16°
1021.5 hPa 188.8 mm 8.8°
3
1%
14:00
20°
1020.6 hPa 188.8 mm 9.2°
2
1%
20:00
17°
1021.8 hPa 188.8 mm 8.3°
2
1%
 04:56     20:50    Daglengte: 15:54 Vrijdag 26 Aug
02:00
15°
1021.5 hPa 188.8 mm 8.1°
3
1%
08:00
16°
1021.7 hPa 188.8 mm 11.3°
2
1%
14:00
16°
1025.8 hPa 190.2 mm 13.6°
3
1%
20:00
14°
1027.3 hPa 190.6 mm 13.2°
1
1%
 05:00     20:46    Daglengte: 15:46 Zaterdag 27 Aug
02:00
14°
1027.4 hPa 190.6 mm 11.2°
1
0%
08:00
13°
1021.3 hPa 0.5 mm 9.8°
1
68%
14:00
16°
1020.8 hPa 0.6 mm 10.3°
2
71%
20:00
13°
1020.8 hPa 0.9 mm 10.4°
1
79%
 05:04     20:41    Daglengte: 15:37 Zondag 28 Aug
02:00
11°
1021.4 hPa 1.1 mm 9.3°
2
76%
08:00
12°
1021.6 hPa 0.6 mm 9.6°
2
81%
14:00
15°
1022.0 hPa 0.2 mm 9.5°
2
83%
20:00
12°
1021.8 hPa 0.8 mm 9.3°
1
73%
 05:07     20:37    Daglengte: 15:30 Maandag 29 Aug
02:00
10°
1021.7 hPa 0.8 mm 8.3°
1
77%
08:00
12°
1021.0 hPa 0.7 mm 8.8°
1
78%
14:00
14°
1020.6 hPa 0.6 mm 9.3°
2
79%
20:00
12°
1020.2 hPa 0.6 mm 9.3°
1
83%
 05:11     20:32    Daglengte: 15:21 Dinsdag 30 Aug
02:00
10°
Voelt als: 9.7°
1020.0 hPa 0.8 mm 8.5°
1
83%
08:00
11°
1019.7 hPa 1.1 mm 8.3°
2
81%
14:00
13°
1019.2 hPa 0.6 mm 8.5°
2
82%
20:00
11°
1018.3 hPa 1.0 mm 8.3°
1
85%
 05:15     20:28    Daglengte: 15:13 Woensdag 31 Aug
02:00
Voelt als: 9.0°
1017.5 hPa 1.4 mm 7.5°
1
81%
08:00
10°
1016.3 hPa 0.6 mm 7.8°
1
71%
14:00
13°
1015.6 hPa 0.9 mm 8.0°
1
74%
20:00
11°
1015.0 hPa 0.8 mm 8.0°
1
74%
 05:19     20:24    Daglengte: 15:05 Donderdag 01 Sep
02:00
Voelt als: 8.5°
1014.4 hPa 0.7 mm 7.1°
1
73%
08:00
10°
1013.2 hPa 0.5 mm 7.8°
1
82%
  CAPE Lifted Index Hail Supercell Tornado SRH 3km CL BTM PRES CL TOP PRES Swiss DWD icon SMHI TS
 04:20     21:32    Daglengte: 17:12 Vandaag
14:00 8 J/kg 10.6 K 0 % 0 % 0 % 0 m²/s² 0 0 10.6 61
15:00 16 J/kg 11.7 K 0 % 0 % 0 % 0 m²/s² 0 0 11.73 61
16:00 20 J/kg 12.0 K 0 % 0 % 0 % 0 m²/s² 0 0 12.03 61
17:00 22 J/kg 12.9 K 0 % 0 % 0 % 0 m²/s² 0 0 13.08 61
18:00 30 J/kg 13.2 K 0 % 0 % 0 % 0 m²/s² 0 0 13.32 61
19:00 52 J/kg 13.7 K 0 % 0 % 0 % 0 m²/s² 0 0 13.94 61
20:00 52 J/kg 13.2 K 0 % 0 % 0 % 0 m²/s² 0 0 13.95 61
21:00 44 J/kg 12.8 K 0 % 0 % 0 % 0 m²/s² 0 0 15.95 61
22:00 24 J/kg 12.7 K 0 % 0 % 0 % 0 m²/s² 0 0 17.41 61
23:00 22 J/kg 12.2 K 0 % 0 % 0 % 0 m²/s² 0 0 17.54 61
 04:24     21:27    Daglengte: 17:03 Morgen
00:00 25 J/kg 11.0 K 0 % 0 % 0 % 0 m²/s² 0 0 16.76 61
01:00 31 J/kg 9.6 K 0 % 0 % 0 % 0 m²/s² 0 0 15.66 3
02:00 31 J/kg 9.2 K 0 % 0 % 0 % 0 m²/s² 0 0 15.05 3
03:00 28 J/kg 8.5 K 0 % 0 % 0 % 0 m²/s² 0 0 13.45 3
04:00 34 J/kg 7.7 K 0 % 0 % 0 % 0 m²/s² 0 0 12.38 3
05:00 34 J/kg 7.2 K 0 % 0 % 0 % 0 m²/s² 0 0 11.31 3
06:00 41 J/kg 7.6 K 0 % 0 % 0 % 0 m²/s² 0 0 12.4 2
07:00 50 J/kg 8.8 K 0 % 0 % 0 % 0 m²/s² 0 0 14.17 2
08:00 44 J/kg 10.6 K 0 % 0 % 0 % 0 m²/s² 0 0 15.82 2
09:00 43 J/kg 11.4 K 0 % 0 % 0 % 0 m²/s² 0 0 17.1 2
10:00 32 J/kg 12.1 K 0 % 0 % 0 % 0 m²/s² 0 0 18.52 2
11:00 21 J/kg 12.6 K 0 % 0 % 0 % 0 m²/s² 0 0 19.02 2
12:00 6 J/kg 12.8 K 0 % 0 % 0 % 0 m²/s² 0 0 19.22 3
13:00 0 J/kg 12.7 K 0 % 0 % 0 % 0 m²/s² 0 0 18.79 3
14:00 0 J/kg 12.1 K 0 % 0 % 0 % 0 m²/s² 0 0 17.56 3
15:00 0 J/kg 11.0 K 0 % 0 % 0 % 0 m²/s² 0 0 16.49 2
16:00 0 J/kg 10.8 K 0 % 0 % 0 % 0 m²/s² 0 0 16.47 3
17:00 0 J/kg 10.5 K 0 % 0 % 0 % 0 m²/s² 0 0 16.68 1
18:00 0 J/kg 9.8 K 0 % 0 % 0 % 0 m²/s² 0 0 16.61 3
19:00 0 J/kg 9.5 K 0 % 0 % 0 % 0 m²/s² 0 0 17.06 2
20:00 0 J/kg 10.0 K 0 % 0 % 0 % 0 m²/s² 0 0 18.16 3
21:00 0 J/kg 11.3 K 0 % 0 % 0 % 0 m²/s² 0 0 20.21 3
22:00 0 J/kg 11.9 K 0 % 0 % 0 % 0 m²/s² 0 0 20.48 3
23:00 0 J/kg 9.9 K 0 % 0 % 0 % 0 m²/s² 0 0 17.04 3
 04:28     21:22    Daglengte: 16:54 Vrijdag 19 Aug
00:00 0 J/kg 8.0 K 0 % 0 % 0 % 0 m²/s² 0 0 12.47 3
01:00 0 J/kg 7.2 K 0 % 0 % 0 % 0 m²/s² 0 0 11.67 3
02:00 0 J/kg 6.7 K 0 % 0 % 0 % 0 m²/s² 0 0 13.03 3
03:00 0 J/kg 6.8 K 0 % 0 % 0 % 0 m²/s² 0 0 13.73 3
04:00 0 J/kg 6.4 K 0 % 0 % 0 % 0 m²/s² 0 0 12.22 3
05:00 0 J/kg 5.7 K 0 % 0 % 0 % 0 m²/s² 0 0 8.67 3
06:00 0 J/kg 4.8 K 0 % 0 % 0 % 0 m²/s² 0 0 5.94 3
07:00 0 J/kg 4.0 K 0 % 0 % 0 % 0 m²/s² 0 0 4.66 3
08:00 0 J/kg 3.8 K 0 % 0 % 0 % 0 m²/s² 0 0 3.83 3
09:00 0 J/kg 4.0 K 0 % 0 % 0 % 0 m²/s² 0 0 4.03 3
10:00 0 J/kg 2.7 K 0 % 0 % 0 % 0 m²/s² 0 0 3.06 3
11:00 0 J/kg 2.6 K 0 % 0 % 0 % 0 m²/s² 0 0 2.63 61
12:00 0 J/kg 2.2 K 0 % 0 % 0 % 0 m²/s² 0 0 2.77 61
13:00 0 J/kg 1.6 K 0 % 0 % 0 % 0 m²/s² 0 0 1.6 61
14:00 0 J/kg 1.1 K 0 % 0 % 0 % 0 m²/s² 0 0 1.1 61
15:00 0 J/kg 1.2 K 0 % 0 % 0 % 0 m²/s² 0 0 1.29 61
16:00 23 J/kg 0.8 K 0 % 0 % 0 % 0 m²/s² 0 0 1.94 61
17:00 157 J/kg -0.4 K 0 % 0 % 0 % 0 m²/s² 0 0 0.86 61
18:00 116 J/kg -0.3 K 0 % 0 % 0 % 0 m²/s² 0 0 1.74 61
19:00 83 J/kg -0.4 K 0 % 0 % 0 % 0 m²/s² 0 0 2.51 3
20:00 57 J/kg -0.4 K 0 % 0 % 0 % 0 m²/s² 0 0 1.04 3
21:00 89 J/kg -0.2 K 0 % 0 % 0 % 0 m²/s² 0 0 -0.08 3
22:00 155 J/kg -0.9 K 0 % 0 % 0 % 0 m²/s² 0 0 -0.9 3
23:00 2 J/kg -1.9 K 0 % 0 % 0 % 0 m²/s² 0 0 -1.63 3
 04:32     21:18    Daglengte: 16:46 Zaterdag 20 Aug
00:00 4 J/kg -1.4 K 0 % 0 % 0 % 0 m²/s² 0 0 -0.74 3
01:00 48 J/kg -1.4 K 0 % 0 % 0 % 0 m²/s² 0 0 -1.4 3
02:00 56 J/kg -1.0 K 0 % 0 % 0 % 0 m²/s² 0 0 -1 3
03:00 0 J/kg 0.3 K 0 % 0 % 0 % 0 m²/s² 0 0 0.33 3
04:00 0 J/kg -0.1 K 0 % 0 % 0 % 0 m²/s² 0 0 -0.07 3
05:00 0 J/kg 0.4 K 0 % 0 % 0 % 0 m²/s² 0 0 0.52 3
06:00 1 J/kg 0.3 K 0 % 0 % 0 % 0 m²/s² 0 0 0.51 3
07:00 0 J/kg 0.5 K 0 % 0 % 0 % 0 m²/s² 0 0 0.95 3
08:00 10 J/kg 0.9 K 0 % 0 % 0 % 0 m²/s² 0 0 1.2 3
09:00 28 J/kg 0.9 K 0 % 0 % 0 % 0 m²/s² 0 0 1.17 3
10:00 15 J/kg 0.6 K 0 % 0 % 0 % 0 m²/s² 0 0 1.83 3
11:00 39 J/kg 0.3 K 0 % 0 % 0 % 0 m²/s² 0 0 1.98 3
12:00 75 J/kg 0.1 K 0 % 0 % 0 % 0 m²/s² 0 0 1.72 61
13:00 111 J/kg -0.1 K 0 % 0 % 0 % 0 m²/s² 0 0 1.61 61
Temp Baro Wind Neerslag
  EWN Forecast EWN WRFDA DWD ICON FMI HIRLAM MET Norway GFS
 04:20     21:32    Daglengte: 17:12 Vandaag
14:00 10.1° 1010.6 hPa 3.2 m/s 17.8 mm 10.2° 1008.8 hPa 4.9 m/s 16.4 mm 11.6° 1010.0 hPa 4.6 m/s 15.6 mm 9.7° 1011.4 hPa 3.0 m/s 0.0 mm 11.3° 1009.7 hPa 3.1 m/s
17:00 9.0° 1012.2 hPa 3.7 m/s 12.7 mm 9.5° 1010.1 hPa 4.7 m/s 52.2 mm 10.4° 1011.6 hPa 5.6 m/s 1.8 mm 8.2° 1012.9 hPa 3.2 m/s 0.0 mm 9.4° 1012.6 hPa 3.4 m/s
20:00 8.6° 1013.5 hPa 2.8 m/s 12.3 mm 9.7° 1011.3 hPa 4.2 m/s 55.2 mm 8.6° 1013.5 hPa 3.4 m/s 2.2 mm 8.1° 1013.9 hPa 2.7 m/s 0.0 mm 8.6° 1014.3 hPa 3.1 m/s
23:00 8.7° 1014.7 hPa 2.5 m/s 4.0 mm 8.4° 1012.8 hPa 3.9 m/s 56.7 mm 8.7° 1014.5 hPa 1.6 m/s 1.5 mm 8.7° 1015.0 hPa 3.4 m/s 0.0 mm 9.1° 1015.2 hPa 2.2 m/s
 04:24     21:27    Daglengte: 17:03 Morgen
02:00 8.6° 1016.5 hPa 2.9 m/s 0.0 mm 8.2° 1014.5 hPa 5.4 m/s 58.6 mm 9.1° 1016.1 hPa 2.5 m/s 0.1 mm 8.7° 1016.8 hPa 3.4 m/s 0.0 mm 9.2° 1016.5 hPa 2.3 m/s
05:00 8.6° 1018.0 hPa 2.4 m/s 0.0 mm 8.0° 1015.6 hPa 4.4 m/s 60.5 mm 9.0° 1017.4 hPa 2.2 m/s 0.0 mm 8.7° 1018.4 hPa 3.2 m/s 0.0 mm 9.2° 1017.5 hPa 1.9 m/s
08:00 9.2° 1019.7 hPa 3.0 m/s 0.0 mm 9.0° 1017.7 hPa 3.9 m/s 62.1 mm 9.6° 1019.7 hPa 3.4 m/s 0.0 mm 9.1° 1020.0 hPa 3.3 m/s 0.0 mm 10.1° 1019.1 hPa 1.4 m/s
11:00 10.3° 1021.2 hPa 2.0 m/s 0.0 mm 10.9° 1019.3 hPa 3.3 m/s 63.0 mm 10.7° 1021.0 hPa 2.0 m/s 0.0 mm 10.2° 1021.9 hPa 2.6 m/s 0.0 mm 11.1° 1020.3 hPa 0.8 m/s
14:00 12.4° 1020.6 hPa 1.1 m/s 0.0 mm 12.7° 1019.1 hPa 1.2 m/s 63.1 mm 12.3° 1020.7 hPa 1.2 m/s 0.0 mm 12.7° 1021.8 hPa 0.3 m/s 0.0 mm 13.0° 1019.4 hPa 0.8 m/s
17:00 14.2° 1018.6 hPa 1.4 m/s 0.0 mm 15.5° 1017.3 hPa 3.0 m/s 63.1 mm 14.4° 1018.8 hPa 1.2 m/s 0.0 mm 13.7° 1020.3 hPa 2.4 m/s 0.0 mm 15.5° 1017.3 hPa 1.7 m/s
20:00 13.7° 1017.2 hPa 2.1 m/s 0.0 mm 15.1° 1016.0 hPa 3.3 m/s 63.1 mm 14.2° 1017.3 hPa 1.0 m/s 0.0 mm 13.4° 1018.9 hPa 3.2 m/s 0.0 mm 14.8° 1016.8 hPa 2.6 m/s
23:00 12.7° 1016.9 hPa 3.9 m/s 0.0 mm 11.6° 1015.6 hPa 5.4 m/s 63.1 mm 12.6° 1017.3 hPa 2.7 m/s 0.0 mm 13.6° 1017.8 hPa 7.8 m/s 0.0 mm 12.2° 1017.8 hPa 3.8 m/s
 04:28     21:22    Daglengte: 16:54 Vrijdag 19 Aug
02:00 13.2° 1016.1 hPa 4.4 m/s 0.0 mm 14.3° 1014.7 hPa 10.1 m/s 63.1 mm 12.9° 1016.5 hPa 3.0 m/s 0.0 mm 13.9° 1017.0 hPa 9.1 m/s 0.0 mm 11.4° 1017.0 hPa 3.9 m/s
05:00 13.6° 1014.9 hPa 4.2 m/s 0.0 mm 14.4° 1013.3 hPa 8.7 m/s 63.1 mm 13.6° 1015.2 hPa 2.7 m/s 0.0 mm 13.7° 1016.1 hPa 7.0 m/s 0.0 mm 12.0° 1016.1 hPa 3.3 m/s
08:00 15.0° 1014.2 hPa 3.8 m/s 0.0 mm 16.4° 1013.3 hPa 8.3 m/s 63.1 mm 15.3° 1014.5 hPa 2.5 m/s 0.0 mm 14.1° 1015.1 hPa 7.9 m/s 0.0 mm 12.3° 1015.8 hPa 2.6 m/s
11:00 17.0° 1012.7 hPa 3.1 m/s 7.2 mm 18.1° 1012.9 hPa 6.0 m/s 63.5 mm 16.5° 1013.0 hPa 2.8 m/s 0.1 mm 15.9° 1014.6 hPa 2.8 m/s
14:00 17.8° 1011.7 hPa 3.5 m/s 22.4 mm 18.0° 1012.0 hPa 3.8 m/s 64.4 mm 15.9° 1012.4 hPa 2.0 m/s 1.4 mm 17.1° 1013.4 hPa 2.5 m/s
17:00 18.8° 1011.0 hPa 3.8 m/s 16.6 mm 21.6° 1011.1 hPa 6.5 m/s 73.8 mm 16.0° 1011.7 hPa 2.2 m/s 0.5 mm 16.1° 1013.7 hPa 0.9 m/s
20:00 18.0° 1010.4 hPa 1.7 m/s 8.5 mm 19.1° 1010.1 hPa 1.0 m/s 75.3 mm 15.3° 1011.7 hPa 1.4 m/s 0.3 mm 16.4° 1013.4 hPa 2.2 m/s
23:00 16.0° 1010.9 hPa 1.5 m/s 35.8 mm 17.5° 1008.6 hPa 2.4 m/s 101.0 mm 14.4° 1012.2 hPa 1.7 m/s 0.0 mm 15.8° 1012.6 hPa 2.7 m/s
 04:32     21:18    Daglengte: 16:46 Zaterdag 20 Aug
02:00 15.9° 1010.5 hPa 1.6 m/s 42.1 mm 19.2° 1005.7 hPa 3.3 m/s 125.2 mm 13.9° 1012.5 hPa 1.7 m/s 0.0 mm 14.9° 1012.2 hPa 3.0 m/s
05:00 16.1° 1010.1 hPa 1.9 m/s 43.6 mm 18.6° 1005.6 hPa 4.0 m/s 126.2 mm 14.0° 1012.6 hPa 1.7 m/s 0.0 mm 14.8° 1010.6 hPa 3.1 m/s
08:00 16.8° 1011.1 hPa 1.5 m/s 0.0 mm 17.4° 1006.4 hPa 1.1 m/s 133.9 mm 16.6° 1012.2 hPa 1.6 m/s 0.0 mm 15.3° 1008.9 hPa 2.0 m/s
11:00 19.1° 1010.4 hPa 2.4 m/s 0.0 mm 18.9° 1007.0 hPa 3.5 m/s 154.1 mm 19.1° 1011.2 hPa 2.1 m/s 0.0 mm 15.3° 1009.4 hPa 1.3 m/s
14:00 18.4° 1009.0 hPa 2.3 m/s 52.5 mm 20.3° 1008.5 hPa 5.2 m/s 155.4 mm 17.9° 1009.1 hPa 1.6 m/s 1.0 mm 15.7° 1010.4 hPa 1.5 m/s
17:00 16.3° 1011.2 hPa 0.9 m/s 53.6 mm 16.3° 1011.2 hPa 0.9 m/s 53.6 mm
20:00 15.5° 1010.9 hPa 0.1 m/s 53.7 mm 15.5° 1010.9 hPa 0.1 m/s 53.7 mm
23:00 14.7° 1010.1 hPa 0.1 m/s 53.9 mm 14.7° 1010.1 hPa 0.1 m/s 53.9 mm
 04:36     21:13    Daglengte: 16:37 Zondag 21 Aug
02:00 15.2° 1008.0 hPa 1.7 m/s 55.2 mm 15.2° 1008.0 hPa 1.7 m/s 55.2 mm
05:00 14.7° 1005.8 hPa 0.8 m/s 59.7 mm 14.7° 1005.8 hPa 0.8 m/s 59.7 mm
08:00 14.7° 1004.3 hPa 0.9 m/s 66.4 mm 14.7° 1004.3 hPa 0.9 m/s 66.4 mm
11:00 14.9° 1003.2 hPa 0.5 m/s 69.8 mm 14.9° 1003.2 hPa 0.5 m/s 69.8 mm
14:00 15.8° 1003.1 hPa 2.5 m/s 72.3 mm 15.8° 1003.1 hPa 2.5 m/s 72.3 mm
17:00 18.2° 1002.3 hPa 2.9 m/s 73.3 mm 18.2° 1002.3 hPa 2.9 m/s 73.3 mm
20:00 15.6° 1004.6 hPa 3.9 m/s 74.3 mm 15.6° 1004.6 hPa 3.9 m/s 74.3 mm
23:00 12.2° 1007.8 hPa 2.7 m/s 74.7 mm 12.2° 1007.8 hPa 2.7 m/s 74.7 mm
 04:40     21:08    Daglengte: 16:28 Maandag 22 Aug
02:00 11.3° 1008.2 hPa 1.2 m/s 74.8 mm 11.3° 1008.2 hPa 1.2 m/s 74.8 mm
05:00 11.2° 1007.9 hPa 0.9 m/s 74.9 mm 11.2° 1007.9 hPa 0.9 m/s 74.9 mm
08:00 13.0° 1007.5 hPa 0.9 m/s 74.9 mm 13.0° 1007.5 hPa 0.9 m/s 74.9 mm
11:00 16.3° 1005.9 hPa 0.4 m/s 75.0 mm 16.3° 1005.9 hPa 0.4 m/s 75.0 mm
14:00 18.1° 1005.0 hPa 0.7 m/s 75.3 mm 18.1° 1005.0 hPa 0.7 m/s 75.3 mm
17:00 17.3° 1004.3 hPa 1.0 m/s 76.5 mm 17.3° 1004.3 hPa 1.0 m/s 76.5 mm
20:00 14.4° 1005.3 hPa 2.7 m/s 77.7 mm 14.4° 1005.3 hPa 2.7 m/s 77.7 mm
23:00 12.3° 1006.7 hPa 2.4 m/s 78.2 mm 12.3° 1006.7 hPa 2.4 m/s 78.2 mm
 04:44     21:04    Daglengte: 16:20 Dinsdag 23 Aug
02:00 10.5° 1008.5 hPa 3.5 m/s 79.5 mm 10.5° 1008.5 hPa 3.5 m/s 79.5 mm
05:00 10.5° 1009.8 hPa 2.1 m/s 84.4 mm 10.5° 1009.8 hPa 2.1 m/s 84.4 mm
08:00 10.4° 1012.0 hPa 2.9 m/s 87.9 mm 10.4° 1012.0 hPa 2.9 m/s 87.9 mm
11:00 11.1° 1013.7 hPa 4.4 m/s 89.2 mm 11.1° 1013.7 hPa 4.4 m/s 89.2 mm
14:00 10.1° 1017.3 hPa 3.5 m/s 90.6 mm 10.1° 1017.3 hPa 3.5 m/s 90.6 mm
17:00 9.9° 1020.2 hPa 3.6 m/s 93.2 mm 9.9° 1020.2 hPa 3.6 m/s 93.2 mm
20:00 9.9° 1023.1 hPa 3.8 m/s 94.0 mm 9.9° 1023.1 hPa 3.8 m/s 94.0 mm
23:00 10.0° 1024.8 hPa 2.1 m/s 94.1 mm 10.0° 1024.8 hPa 2.1 m/s 94.1 mm
 04:48     20:59    Daglengte: 16:11 Woensdag 24 Aug
02:00 9.5° 1025.8 hPa 1.3 m/s 94.4 mm 9.5° 1025.8 hPa 1.3 m/s 94.4 mm
05:00 8.7° 1025.0 hPa 2.9 m/s 94.4 mm 8.7° 1025.0 hPa 2.9 m/s 94.4 mm
08:00 11.3° 1024.1 hPa 2.8 m/s 94.4 mm 11.3° 1024.1 hPa 2.8 m/s 94.4 mm
11:00 15.0° 1022.8 hPa 2.6 m/s 94.4 mm 15.0° 1022.8 hPa 2.6 m/s 94.4 mm
14:00 17.3° 1022.0 hPa 1.2 m/s 94.4 mm 17.3° 1022.0 hPa 1.2 m/s 94.4 mm
20:00 15.4° 1022.6 hPa 1.4 m/s 94.4 mm 15.4° 1022.6 hPa 1.4 m/s 94.4 mm
 04:52     20:55    Daglengte: 16:03 Donderdag 25 Aug
02:00 14.6° 1022.6 hPa 3.0 m/s 94.4 mm 14.6° 1022.6 hPa 3.0 m/s 94.4 mm
08:00 15.8° 1021.5 hPa 2.6 m/s 94.4 mm 15.8° 1021.5 hPa 2.6 m/s 94.4 mm
14:00 19.9° 1020.6 hPa 1.8 m/s 94.4 mm 19.9° 1020.6 hPa 1.8 m/s 94.4 mm
20:00 16.8° 1021.8 hPa 1.7 m/s 94.4 mm 16.8° 1021.8 hPa 1.7 m/s 94.4 mm
 04:56     20:50    Daglengte: 15:54 Vrijdag 26 Aug
02:00 15.0° 1021.5 hPa 2.9 m/s 94.4 mm 15.0° 1021.5 hPa 2.9 m/s 94.4 mm
08:00 16.5° 1021.7 hPa 1.6 m/s 94.4 mm 16.5° 1021.7 hPa 1.6 m/s 94.4 mm
14:00 15.6° 1025.8 hPa 2.7 m/s 95.3 mm 15.6° 1025.8 hPa 2.7 m/s 95.3 mm
20:00 14.5° 1027.3 hPa 0.6 m/s 95.3 mm 14.5° 1027.3 hPa 0.6 m/s 95.3 mm
 05:00     20:46    Daglengte: 15:46 Zaterdag 27 Aug
02:00 13.9° 1027.4 hPa 1.5 m/s 95.3 mm 13.9° 1027.4 hPa 1.5 m/s 95.3 mm
08:00 12.6° 1021.3 hPa 1.5 m/s 0.5 mm
14:00 15.7° 1020.8 hPa 1.7 m/s 0.6 mm
20:00 13.2° 1020.8 hPa 1.3 m/s 0.9 mm
 05:04     20:41    Daglengte: 15:37 Zondag 28 Aug
02:00 11.0° 1021.4 hPa 1.7 m/s 1.1 mm
08:00 12.2° 1021.6 hPa 1.6 m/s 0.6 mm
14:00 14.6° 1022.0 hPa 1.8 m/s 0.2 mm
20:00 12.1° 1021.8 hPa 1.2 m/s 0.8 mm
 05:07     20:37    Daglengte: 15:30 Maandag 29 Aug
02:00 10.2° 1021.7 hPa 1.3 m/s 0.8 mm
08:00 11.7° 1021.0 hPa 1.3 m/s 0.7 mm
14:00 14.4° 1020.6 hPa 1.8 m/s 0.6 mm
20:00 11.7° 1020.2 hPa 1.3 m/s 0.6 mm
 05:11     20:32    Daglengte: 15:21 Dinsdag 30 Aug
02:00 9.9° 1020.0 hPa 1.4 m/s 0.8 mm
08:00 10.7° 1019.7 hPa 1.6 m/s 1.1 mm
14:00 13.2° 1019.2 hPa 1.8 m/s 0.6 mm
20:00 10.9° 1018.3 hPa 0.9 m/s 1.0 mm
 05:15     20:28    Daglengte: 15:13 Woensdag 31 Aug
02:00 9.1° 1017.5 hPa 1.1 m/s 1.4 mm
08:00 10.4° 1016.3 hPa 1.1 m/s 0.6 mm
14:00 13.3° 1015.6 hPa 1.3 m/s 0.9 mm
20:00 10.6° 1015.0 hPa 0.8 m/s 0.8 mm
 05:19     20:24    Daglengte: 15:05 Donderdag 01 Sep
02:00 8.9° 1014.4 hPa 1.4 m/s 0.7 mm
08:00 10.1° 1013.2 hPa 1.4 m/s 0.5 mm
FMI Hirlam - 7.5 km EWN WRFDA - 12 km DWD ICON - 7 km GFS - 25 km Basiskaart